Change the Weather History Date:

Wednesday, July 10, 2013

  Actual Average Record
Temperature  
Mean Temperature 72 °F -  
Max Temperature 78 °F 79 °F - ()
Min Temperature 66 °F 63 °F - ()
Cooling Degree Days 7    
Growing Degree Days 22 (Base 50)    
Moisture  
Dew Point 66 °F    
Average Humidity 83    
Maximum Humidity 100    
Minimum Humidity 55    
Precipitation  
Precipitation 0.35 in 0.03 in - ()
Sea Level Pressure  
Sea Level Pressure 30.04 in    
Wind  
Wind Speed 16 mph ()    
Max Wind Speed 31 mph    
Max Gust Speed 38 mph    
Visibility 6.0 miles    
Events Rain    
T = Trace of Precipitation, MM = Missing Value Source: Averaged Metar Reports

Daily Weather History Graph

Daily Weather History Graph

Search for Another Location

Airport or City:

Trip Planner

Search our weather history database for the weather conditions in past years. The results will help you decide how hot, cold, wet, or windy it might be!

Date:

Astronomy

Jul. 10, 2013 Rise Set
Actual Time 6:47 AM AEST 5:57 PM AEST
Civil Twilight 6:23 AM AEST 6:21 PM AEST
Nautical Twilight 5:56 AM AEST 6:47 PM AEST
Astronomical Twilight 5:30 AM AEST 7:14 PM AEST
Moon 7:49 AM AEST (7/10) 7:36 PM AEST (7/10)
Length of Visible Light 11h 57m
Length of Day
11h 10m
Waxing Crescent, 3% of the Moon is Illuminated
Jul 10
Waxing Crescent
Jul 16
First Quarter
Jul 23
Full
Jul 30
Last Quarter
Aug 7
New

Hourly Weather History & Observations

Time (AEST) Temp. Dew Point Humidity Pressure Visibility Wind Dir Wind Speed Gust Speed Precip Events Conditions
12:00 AM 68 °F 65 °F 86% 30.07 in 5 mi SSE 19.6 mph - -   Overcast
12:00 AM 68.0 °F 64.4 °F 88% 30.06 in 5.0 mi SSE 19.6 mph 31.1 mph N/A Rain Light Rain Showers
12:14 AM 68.0 °F 64.4 °F 88% 30.06 in 3.7 mi SSE 18.4 mph - N/A Rain Light Rain Showers
1:00 AM 68 °F 64 °F 82% 30.06 in - SSE 12.7 mph - -  
1:00 AM 68.0 °F 64.4 °F 88% 30.04 in 6.2 mi SSE 12.7 mph - N/A   Mostly Cloudy
1:11 AM 69.8 °F 62.6 °F 78% 30.04 in 6.2 mi SSE 19.6 mph 33.4 mph N/A   Mostly Cloudy
1:23 AM 68.0 °F 64.4 °F 88% 30.04 in 3.7 mi SSE 21.9 mph - N/A Rain Light Rain Showers
1:30 AM 68.0 °F 64.4 °F 88% 30.04 in 5.0 mi SSE 18.4 mph - N/A   Mostly Cloudy
2:00 AM 68.0 °F 62.6 °F 83% 30.01 in 6.2 mi South 15.0 mph - N/A   Mostly Cloudy
2:30 AM 68.0 °F 62.6 °F 83% 30.01 in 6.2 mi South 15.0 mph - N/A   Scattered Clouds
3:00 AM 68 °F 63 °F 80% 30.01 in - South 15.0 mph - -  
3:00 AM 68.0 °F 62.6 °F 83% 30.01 in 6.2 mi South 15.0 mph - N/A   Mostly Cloudy
3:30 AM 68.0 °F 64.4 °F 88% 30.01 in 6.2 mi South 16.1 mph - N/A   Mostly Cloudy
4:00 AM 69 °F 63 °F 77% 30.01 in - SSE 13.8 mph - -  
4:00 AM 69.8 °F 62.6 °F 78% 30.01 in 6.2 mi SSE 13.8 mph - N/A   Mostly Cloudy
4:30 AM 69.8 °F 62.6 °F 78% 30.01 in 6.2 mi South 15.0 mph - N/A   Mostly Cloudy
5:00 AM 69.8 °F 62.6 °F 78% 30.01 in 6.2 mi South 13.8 mph - N/A   Mostly Cloudy
5:30 AM 68.0 °F 62.6 °F 83% 30.01 in 6.2 mi South 12.7 mph - N/A   Mostly Cloudy
6:00 AM 69 °F 63 °F 76% 30.03 in 16 mi South 13.8 mph - -   Partly Cloudy
6:00 AM 69.8 °F 62.6 °F 78% 30.04 in 6.2 mi South 13.8 mph - N/A   Scattered Clouds
6:30 AM 69.8 °F 62.6 °F 78% 30.01 in 6.2 mi South 15.0 mph - N/A   Mostly Cloudy
7:00 AM 69 °F 64 °F 77% 30.04 in - South 16.1 mph - -  
7:00 AM 69.8 °F 64.4 °F 83% 30.04 in 6.2 mi South 16.1 mph - N/A   Mostly Cloudy
7:30 AM 69.8 °F 64.4 °F 83% 30.04 in 6.2 mi SSE 17.3 mph - N/A   Mostly Cloudy
8:00 AM 71.6 °F 64.4 °F 78% 30.06 in 6.2 mi South 15.0 mph - N/A   Partly Cloudy
8:30 AM 71.6 °F 66.2 °F 83% 30.06 in 6.2 mi South 11.5 mph - N/A   Partly Cloudy
9:00 AM 72 °F 65 °F 74% 30.08 in 19 mi South 13.8 mph - -   Partly Cloudy
9:00 AM 73.4 °F 66.2 °F 78% 30.06 in 6.2 mi South 13.8 mph - N/A   Partly Cloudy
9:30 AM 75.2 °F 66.2 °F 73% 30.06 in 6.2 mi SSE 16.1 mph - N/A   Mostly Cloudy
9:48 AM 75.2 °F 66.2 °F 73% 30.06 in 6.2 mi SSE 19.6 mph 31.1 mph N/A   Mostly Cloudy
10:00 AM 74 °F 65 °F 68% 30.09 in - SE 27.6 mph - -  
10:00 AM 75.2 °F 66.2 °F 73% 30.06 in 6.2 mi SE 27.6 mph - N/A   Mostly Cloudy
10:30 AM 75.2 °F 66.2 °F 73% 30.06 in 6.2 mi SE 21.9 mph - N/A Rain Light Rain Showers
11:00 AM 77.0 °F 66.2 °F 69% 30.06 in 6.2 mi SSE 27.6 mph - N/A   Scattered Clouds
11:30 AM 75.2 °F 66.2 °F 73% 30.06 in 6.2 mi SE 25.3 mph - N/A Rain Light Rain Showers
11:49 AM 75.2 °F 68.0 °F 78% 30.04 in 6.2 mi SSE 25.3 mph - N/A   Mostly Cloudy
12:00 PM 76 °F 66 °F 63% 30.06 in 19 mi SSE 24.2 mph - - Rain Light Rain Showers
12:00 PM 75.2 °F 66.2 °F 73% 30.04 in 6.2 mi SSE 24.2 mph - N/A   Scattered Clouds
12:30 PM 77.0 °F 64.4 °F 65% 30.04 in 6.2 mi SE 23.0 mph - N/A   Scattered Clouds
1:00 PM 78 °F 65 °F 55% 30.04 in - SE 21.9 mph - -  
1:00 PM 78.8 °F 64.4 °F 61% 30.01 in 6.2 mi SE 21.9 mph - N/A   Scattered Clouds
1:13 PM 77.0 °F 64.4 °F 65% 30.01 in 6.2 mi SSE 19.6 mph 32.2 mph N/A   Scattered Clouds
1:30 PM 77.0 °F 64.4 °F 65% 30.01 in 6.2 mi SE 19.6 mph 31.1 mph N/A   Mostly Cloudy
1:41 PM 73.4 °F 68.0 °F 83% 30.01 in 3.1 mi SE 31.1 mph - N/A Rain Light Rain Showers
1:50 PM 73.4 °F 66.2 °F 78% 30.01 in 6.2 mi SE 26.5 mph 38.0 mph N/A   Mostly Cloudy
2:00 PM 75.2 °F 66.2 °F 73% 30.01 in 6.2 mi SSE 23.0 mph - N/A   Mostly Cloudy
2:30 PM 75.2 °F 66.2 °F 73% 30.01 in 6.2 mi SSE 13.8 mph - N/A   Mostly Cloudy
3:00 PM 74 °F 66 °F 71% 30.01 in 16 mi SSE 21.9 mph - -   Partly Cloudy
3:00 PM 73.4 °F 66.2 °F 78% 30.01 in 6.2 mi SSE 21.9 mph - N/A   Mostly Cloudy
3:30 PM 73.4 °F 66.2 °F 78% 30.01 in 6.2 mi SSE 17.3 mph - N/A   Mostly Cloudy
3:55 PM 71.6 °F 68.0 °F 88% 30.01 in 3.1 mi South 16.1 mph - N/A Rain Light Rain Showers
4:00 PM 71 °F 67 °F 84% 30.03 in - South 17.3 mph - -  
4:00 PM 71.6 °F 68.0 °F 88% 30.01 in 3.1 mi South 17.3 mph - N/A Rain Light Rain Showers
4:14 PM 71.6 °F 68.0 °F 88% 30.01 in 6.2 mi South 16.1 mph - N/A Rain Light Rain Showers
4:30 PM 69.8 °F 68.0 °F 94% 30.01 in 1.9 mi South 13.8 mph - N/A Rain Light Rain Showers
4:52 PM 69.8 °F 68.0 °F 94% 30.04 in 5.0 mi South 12.7 mph - N/A   Mostly Cloudy
5:00 PM 69.8 °F 68.0 °F 94% 30.04 in 3.1 mi South 10.4 mph - N/A Rain Light Rain Showers
5:30 PM 69.8 °F 68.0 °F 94% 30.04 in 3.1 mi SSE 16.1 mph - N/A Rain Light Rain Showers
5:45 PM 69.8 °F 68.0 °F 94% 30.04 in 6.2 mi South 16.1 mph - N/A   Mostly Cloudy
6:00 PM 69 °F 67 °F 90% 30.06 in - South 12.7 mph - -   Overcast
6:00 PM 69.8 °F 66.2 °F 88% 30.04 in 3.1 mi South 12.7 mph - N/A Rain Light Rain Showers
6:30 PM 68.0 °F 68.0 °F 100% 30.04 in 3.1 mi SSE 16.1 mph - N/A Rain Light Rain Showers
7:00 PM 69 °F 67 °F 90% 30.06 in - South 11.5 mph - -  
7:00 PM 68.0 °F 66.2 °F 94% 30.04 in 5.0 mi South 11.5 mph - N/A   Mostly Cloudy
7:30 PM 69.8 °F 66.2 °F 88% 30.06 in 5.0 mi SSE 17.3 mph - N/A Rain Light Rain Showers
7:42 PM 68.0 °F 68.0 °F 100% 30.06 in 3.7 mi SSE 16.1 mph - N/A Rain Light Rain Showers
8:00 PM 68.0 °F 68.0 °F 100% 30.06 in 3.1 mi South 16.1 mph - N/A Rain Light Rain Showers
8:12 PM 68.0 °F 66.2 °F 94% 30.06 in 6.2 mi South 16.1 mph - N/A Rain Light Rain Showers
8:23 PM 68.0 °F 66.2 °F 94% 30.06 in 3.7 mi South 17.3 mph - N/A Rain Light Rain Showers
8:30 PM 68.0 °F 66.2 °F 94% 30.06 in 3.1 mi SSE 17.3 mph - N/A Rain Light Rain Showers
8:40 PM 68.0 °F 66.2 °F 94% 30.06 in 6.2 mi South 16.1 mph - N/A Rain Light Rain Showers
9:00 PM 69 °F 66 °F 89% 30.09 in - South 18.4 mph - -   Overcast
9:00 PM 69.8 °F 66.2 °F 88% 30.09 in 6.2 mi South 18.4 mph - N/A Rain Light Rain Showers
9:09 PM 69.8 °F 66.2 °F 88% 30.09 in 3.7 mi SSE 18.4 mph - N/A Rain Light Rain Showers
9:30 PM 68.0 °F 66.2 °F 94% 30.09 in 3.7 mi South 16.1 mph - N/A Rain Light Rain Showers
9:58 PM 68.0 °F 66.2 °F 94% 30.09 in 3.1 mi SSE 17.3 mph 29.9 mph N/A Rain Light Rain Showers
10:00 PM 68 °F 67 °F 94% 30.11 in - SSE 17.3 mph - -  
10:00 PM 68.0 °F 66.2 °F 94% 30.09 in 3.1 mi SSE 17.3 mph 29.9 mph N/A Rain Light Rain Showers
10:11 PM 68.0 °F 66.2 °F 94% 30.09 in 5.6 mi SSE 19.6 mph - N/A Rain Rain Showers
10:30 PM 68.0 °F 66.2 °F 94% 30.09 in 6.2 mi South 17.3 mph - N/A   Overcast
11:00 PM 68.0 °F 66.2 °F 94% 30.09 in 6.2 mi South 16.1 mph - N/A   Overcast
11:12 PM 68.0 °F 66.2 °F 94% 30.09 in 6.2 mi South 17.3 mph 29.9 mph N/A   Overcast
11:30 PM 68.0 °F 64.4 °F 88% 30.09 in 6.2 mi South 15.0 mph - N/A   Overcast